Location: Chantarel
(45.1638°N, 1.7873°E)
Time: 13:21:58
(UTC+00:00)

Cosmos 1271 Rocket - Pass Details

Date: 03 March 2021
Orbit: 498 x 544 km, 81.2° (Epoch: 15 April)

Event Time Altitude Azimuth Distance (km) Brightness Sun altitude
Rises 18:29:40 0° 344° (NNW) 2,600 6.5 -9.0°
Reaches altitude 10° 18:31:50 10° 338° (NNW) 1,713 5.6 -9.4°
Maximum altitude 18:35:27 48° 264° (W) 663 3.8 -10.0°
Drops below altitude 10° 18:39:04 10° 189° (S) 1,709 5.4 -10.7°
Sets 18:41:13 0° 184° (S) 2,593 6.3 -11.1°
